Flag Weather past 2 weeks in Sacramento, California, U.S.A.

Now
47 °F

Sunny.


Feels Like: 44 °F
Forecast: 44 / 61 °F
Wind: 6 mph from Northwest

Location: Sacramento Executive Airport

Current Time: Nov 23, 2014 at 8:27:37 AM

Latest Report: Nov 23, 2014 at 7:53 AM


Visibility: 10 mi

Pressure: 30.31 "Hg

Humidity: 86%

Dew point: 43 °F

Location of SacramentoLocation

Historic Weather in Sacramento — Graph

°F

Sacramento temperature yesterday

Maximum temperature yesterday: 60 °F (at 1:53 PM)
Minimum temperature yesterday: 49 °F (at 8:53 PM)
Average temperature yesterday: 55 °F

Past Weeks' High & Low Weather Summary

 TemperatureHumidityPressure
High78 °F (Nov 9, 2:53 PM)100% (Nov 10, 4:04 AM)30.29 "Hg (Nov 10, 4:04 AM)
Low38 °F (Nov 18, 4:53 AM)27% (Nov 17, 2:53 PM)29.76 "Hg (Nov 10, 4:53 PM)
Average55 °F78%30.06 "Hg
* Reported Nov 8 6:53 AM — Nov 23 6:53 AM, Sacramento, Weather by CustomWeather, © 2014

Note: Actual official high and low records may vary slightly from our data, if they occured in-between our weather recording intervals... More about our weather records

Advertising

Sacramento weather history for previous 24 hours

 ConditionsComfort  
Time TempWeatherWind HumidityBarometerVisibility
6:53 AM
Nov 23
45 °FClear.5 mph90%30.29 "Hg10 mi
5:53 AM47 °FClear.9 mph86%30.27 "Hg10 mi
4:53 AM48 °FClear.10 mph89%30.27 "Hg10 mi
3:53 AM48 °FClear.12 mph93%30.26 "Hg8 mi
2:53 AM50 °FFog.10 mph96%30.26 "Hg3 mi
2:02 AM52 °FFog.9 mph94%30.25 "Hg3 mi
1:53 AM52 °FFog.8 mph97%30.24 "Hg1 mi
12:53 AM53 °FFog.10 mph96%30.25 "Hg1 mi
11:53 PM
Nov 22
52 °FFog.9 mph97%30.26 "Hg0 mi
10:53 PM52 °FFog.7 mph100%30.24 "Hg0 mi
9:53 PM51 °FFog.3 mph96%30.23 "Hg0 mi
8:53 PM49 °FFog.No wind97%30.20 "Hg0 mi
7:53 PM51 °FPassing clouds.No wind96%30.20 "Hg8 mi
7:02 PM54 °FClear.No wind94%30.18 "Hg8 mi
6:03 PM57 °FPassing clouds.5 mph88%30.17 "Hg8 mi
5:53 PM57 °FPassing clouds.3 mph90%30.16 "Hg8 mi
4:53 PM58 °FClear.6 mph87%30.13 "Hg7 mi
3:53 PM60 °FScattered clouds.7 mph83%30.12 "Hg7 mi
2:53 PM59 °FFog.9 mph87%30.10 "Hg6 mi
1:53 PM60 °FMostly cloudy.8 mph83%30.10 "Hg6 mi
12:53 PM57 °FFog.9 mph90%30.09 "Hg5 mi
11:53 AM56 °FFog.12 mph90%30.08 "Hg5 mi
10:53 AM54 °FFog.15 mph93%30.08 "Hg4 mi
9:53 AM53 °FLight rain. Fog.14 mph93%30.10 "Hg1 mi
8:53 AM53 °FLight rain. Fog.12 mph93%30.06 "Hg1 mi
Weather by CustomWeather, © 2014

See weather overviewHow to use our weather pages